DW4596 Weather Reports


time (UTC)temp
C
wind
direction
speed
KPH
gust
KPH
rain 1hr
cm
rain 24hr
cm
rain mn
cm
humidity
%
barometer
mb
20260505061556 15 192 9.7 0.0 0.00 0.00 0.00 60 999.2
20260505060051 15 175 14.5 0.0 0.00 0.00 0.00 59 999.2
20260505054548 15 161 19.3 0.0 0.00 0.00 0.00 57 999.3
20260505053112 15 158 19.3 0.0 0.00 0.00 0.00 57 999.4
20260505051551 15 162 12.9 0.0 0.00 0.00 0.00 56 999.6
20260505041547 14 184 3.2 0.0 0.00 0.00 0.00 57 1000.0
20260505040046 14 196 3.2 0.0 0.00 0.00 0.00 58 1000.1
20260505034606 15 197 6.4 0.0 0.00 0.00 0.00 56 1000.0
20260505033054 15 190 6.4 0.0 0.00 0.00 0.00 56 1000.0
20260505031548 15 194 6.4 0.0 0.00 0.00 0.00 56 1000.2
20260505030051 15 207 8.0 0.0 0.00 0.00 0.00 57 1000.3
20260505024548 15 207 8.0 0.0 0.00 0.00 0.00 56 1000.2
20260505023049 15 209 8.0 0.0 0.00 0.00 0.00 56 1000.6
20260505021547 15 198 6.4 0.0 0.00 0.00 0.00 56 1000.5
20260505020047 15 188 4.8 0.0 0.00 0.00 0.00 55 1000.6
20260505014547 15 191 4.8 0.0 0.00 0.00 0.00 56 1000.7
20260505013049 15 190 6.4 0.0 0.00 0.00 0.00 56 1000.7
20260505011606 16 194 6.4 0.0 0.00 0.00 0.00 56 1000.8
20260505010050 16 201 9.7 0.0 0.00 0.00 0.00 56 1000.8
20260505004548 16 200 6.4 0.0 0.00 0.00 0.00 57 1000.9
20260505003054 16 219 6.4 0.0 0.00 0.00 0.00 56 1000.7
20260505001604 16 202 6.4 0.0 0.00 0.00 0.00 56 1000.6
20260505000105 16 190 8.0 0.0 0.00 0.00 0.00 55 1000.5
20260504234550 17 207 11.3 0.0 0.00 0.00 0.00 55 1000.4
20260504233103 17 200 11.3 0.0 0.00 0.00 0.00 55 1000.4
20260504231548 17 220 11.3 0.0 0.00 0.00 0.00 55 1000.4
20260504230048 17 191 12.9 0.0 0.00 0.00 0.00 55 1000.5
20260504224547 17 191 14.5 0.0 0.00 0.00 0.00 55 1000.5
20260504223049 17 196 14.5 0.0 0.00 0.00 0.00 54 1000.7
20260504221548 17 184 14.5 0.0 0.00 0.00 0.00 53 1000.8
20260504220047 17 225 14.5 0.0 0.00 0.00 0.00 54 1000.9
20260504214543 17 196 16.1 0.0 0.00 0.00 0.00 54 1001.0
20260504213048 17 218 16.1 0.0 0.00 0.00 0.00 54 1001.1
20260504211541 17 228 16.1 0.0 0.00 0.00 0.00 56 1001.1
20260504210039 16 229 16.1 0.0 0.00 0.00 0.00 56 1001.3
20260504204536 16 225 17.7 0.0 0.00 0.00 0.00 56 1001.5
20260504203037 16 242 16.1 0.0 0.00 0.00 0.00 56 1001.6
20260504201534 16 219 17.7 0.0 0.00 0.00 0.00 56 1001.7
20260504200033 16 228 19.3 0.0 0.00 0.00 0.00 55 1001.9
20260504194533 16 249 19.3 0.0 0.00 0.00 0.00 56 1002.1
20260504193034 16 241 19.3 0.0 0.00 0.00 0.00 56 1002.3
20260504191530 15 217 19.3 0.0 0.00 0.00 0.00 59 1002.3
20260504190028 15 234 20.9 0.0 0.00 0.00 0.00 59 1002.5
20260504184527 15 224 19.3 0.0 0.00 0.00 0.00 58 1002.6
20260504183026 15 228 19.3 0.0 0.00 0.00 0.00 59 1002.8
20260504181522 15 205 20.9 0.0 0.00 0.00 0.00 58 1002.8
20260504180020 15 217 19.3 0.0 0.00 0.00 0.00 59 1002.9
20260504174516 13 227 20.9 0.0 0.00 0.00 0.00 60 1003.3
20260504173022 13 212 22.5 0.0 0.00 0.00 0.00 60 1003.4
20260504171523 13 202 22.5 0.0 0.00 0.00 0.00 60 1003.6
20260504100103 7 205 22.5 0.0 0.00 0.00 0.10 80 1004.3
20260504090121 7 224 20.9 0.0 0.00 0.00 0.10 78 1004.1
20260504081508 9 214 17.7 0.0 0.00 0.00 0.10 74 1004.3